Tracking 28794 objects as of 19-Apr-2024
HD Live streaming from Space Station
objects crossing your sky now

DMSP 5D-2 F13 DEB

Track DMSP 5D-2 F13 DEB now!
10-day predictions


NORAD ID: 40495
Int'l Code: 1995-015CJ
Perigee: 668.8 km
Apogee: 750.0 km
Inclination: 98.6 °
Period: 98.8 minutes
Semi major axis: 7080 km
RCS: Unknown
Launch date: March 24, 1995
Source: United States (US)
Launch site: AIR FORCE WESTERN TEST RANGE (AFWTR)

Note: This is SATELLITE DEBRIS
Your satellite tracking list
Your tracking list is empty




NASA's NSSDC Master Catalog

Two Line Element Set (TLE):
1 40495U 95015CJ  24108.08314592  .00054938  00000-0  11818-1 0  9998
2 40495  98.5867 194.0113 0057329 154.4309 205.9743 14.57191640477622
Source of the keplerian elements: AFSPC